Regional Weather Roundup
Issued by NWS Lake Charles, LA

Home | Current Version | Previous Version | Text Only | Print | Product List | Glossary On
Versions: 1 2 3 4 5 6 7 8 9 10 11 12 13 14 15 16 17 18 19 20 21 22 23 24 25 26 27
000
ASUS44 KLCH 282110
RWRLCH
REGIONAL WEATHER ROUNDUP
NATIONAL WEATHER SERVICE LAKE CHARLES LA
400 PM CDT FRI APR 28 2017

Note: "fair" indicates few or no clouds below 12,000 feet with no
significant weather and/or obstructions to visibility.


ACROSS SOUTHEAST TEXAS

CITY           SKY/WX    TMP DP  RH WIND       PRES   REMARKS
BEAUMONT       CLOUDY    83  75  77 SE14      29.71F
BEAUMONT CITY  CLOUDY    84  75  73 SE14G22   29.72F
ORANGE         CLOUDY    82  76  83 S13G20    29.75F HAZE
JASPER           N/A     88  74  64 SE10      29.73S
$$

ACROSS CENTRAL LOUISIANA

CITY           SKY/WX    TMP DP  RH WIND       PRES   REMARKS
LEESVILLE      PTSUNNY   87  73  62 S22       29.72F
FULLERTON      FAIR      88  74  63 S9G21     29.71F
ALEXANDRIA INT PTSUNNY   87  74  64 S21G28    29.73
ESLER FIELD    PTSUNNY   86  75  69 S13G23    29.75F
DERIDDER       FAIR      87  71  59 S14G25    29.76S HAZE
OAKDALE        CLOUDY    85  73  69 S14G21    29.77S
OPELOUSAS      CLOUDY    85  73  65 S20       29.79F
$$

ACROSS SOUTHWEST AND SOUTH CENTRAL LOUISIANA

CITY           SKY/WX    TMP DP  RH WIND       PRES   REMARKS
SULPHUR        CLOUDY    81  75  82 SE15G25   29.76F
LAKE CHARLES   CLOUDY    81  74  79 SE18G26   29.76S HAZE
CHENNAULT INT  CLOUDY    70  64  83 S17G23    29.77S
CAMERON PHI    NOT AVBL
DEQUINCY       CLOUDY    81  74  80 SE15G21   29.75S
JENNINGS       CLOUDY    82  73  75 S21G26    29.78F
LAFAYETTE      CLOUDY    85  75  72 S12G22    29.81S
NEW IBERIA     CLOUDY    83  73  72 S17G26    29.82F
ABBEVILLE      CLOUDY    81  79  94 SE18G28   29.81F
PATTERSON      CLOUDY    82  75  79 S12G22    29.84S
SALT POINT       N/A     80  75  84 VRB7G17     N/A
$$

SELECTED SITES ACROSS THE REGION

CITY           SKY/WX    TMP DP  RH WIND       PRES   REMARKS
HOUSTON BUSH   MOSUNNY   90  73  57 S18G28    29.64F
HOUSTON HOBBY  MOSUNNY   86  74  67 SE16G26   29.65F
GALVESTON      CLOUDY    84  77  79 SE15      29.69F HAZE
COLLEGE STAT   SUNNY     92  72  51 SE24G31   29.59F
CONROE         MOSUNNY   90  72  55 SE22G31   29.64F
HUNTSVILLE     MOSUNNY   91  70  49 VRB7G18   29.62F
LUFKIN         MOSUNNY   88  71  57 S16       29.65F
SHREVEPORT     MOSUNNY   87  74  64 S17G23    29.66F
MONROE         PTSUNNY   88  72  58 S12G20    29.74S
NATCHEZ MS     MOSUNNY   88  72  58 S21G31    29.79F
BATON ROUGE    PTSUNNY   86  71  60 S20       29.83S
N.O. INTL ARPT PTSUNNY   83  74  74 S14G29    29.87F
SLIDELL        CLOUDY    83  75  77 S13G24    29.89S
$$

MARINE REPORTS

STATION/POSITION TIME  SKY/WX   TEMP    WIND        PRES    VSBY
                                AIR SEA DIR/SP/G
                 (UTC)          (F)     (DEG/KT/KT) (MB)    (MI)
BUOY 30 S HIGH I 2050            77 76  120/ 14/ 16 1005.2F
WVE H/P(F/S)=  4/ 8

SEA RIM ST PARK  2100            78     130/ 13/ 15 1006.8F
PORT ARTHUR      2048            79 75  140/ 10/ 17 1006.9F
SABINE PASS N    2048            78 78  130/ 13/ 18 1008.1F
TEXAS POINT      NOT AVBL
CALCASIEU PASS   2048            78 77  150/ 13/ 20   N/A
LK CHARLES BEACH 2048            82 73              1008.1F
MARSH ISLAND     2000            78                   N/A
FRESH WATER LOCK 2048            79 78  140/ 13/ 20 1008.5F
AMERADA PASS     2048            80 73  140/ 10/ 23 1009.7F
$$




USA.gov is the U.S. government's official web portal to all federal, state and local government web resources and services.